Tracking 28790 objects as of 19-Apr-2024
HD Live streaming from Space Station
objects crossing your sky now

THORAD DELTA 1 DEB

Track THORAD DELTA 1 DEB now!
10-day predictions


NORAD ID: 8556
Int'l Code: 1974-089CT
Perigee: 1,395.8 km
Apogee: 1,520.1 km
Inclination: 101.2 °
Period: 114.9 minutes
Semi major axis: 7828 km
RCS: 0.073 m2 (small)
Launch date: November 15, 1974
Source: United States (US)
Launch site: AIR FORCE WESTERN TEST RANGE (AFWTR)

Note: This is SATELLITE DEBRIS
Your satellite tracking list
Your tracking list is empty




NASA's NSSDC Master Catalog

Two Line Element Set (TLE):
1 08556U 74089CT  24109.96216083  .00000221  00000-0  16405-2 0  9996
2 08556 101.2406 274.5910 0079384 280.4964 232.4557 12.53286573258085
Source of the keplerian elements: AFSPC